Total_Precipitation_Accumulation
0.25 0.27 0.31 0.29 0.28 0.29 0.32 0.44 0.61 0.45 0.12 0.03 0.05 0.08 0.12 0.16 0.22 0.27 0.27 0.33 0.38 0.43 0.51 0.59 0.62 0.65 0.80 1.14 1.87 2.74 3.38 3.48 3.16 2.68 2.44 2.62 2.95 3.40
0.29 0.33 0.35 0.35 0.33 0.33 0.34 0.37 0.49 0.61 0.39 0.08 0.07 0.10 0.14 0.16 0.22 0.26 0.25 0.31 0.35 0.39 0.41 0.45 0.54 0.63 0.72 0.87 1.17 1.86 2.64 3.25 3.48 3.36 3.11 3.05 3.22 3.53
0.35 0.39 0.38 0.39 0.42 0.42 0.42 0.42 0.43 0.52 0.53 0.16 0.07 0.10 0.18 0.25 0.24 0.24 0.24 0.25 0.28 0.35 0.39 0.40 0.45 0.53 0.63 0.73 0.89 1.26 1.93 2.60 3.20 3.56 3.70 3.61 3.56 3.57
0.46 0.46 0.46 0.46 0.47 0.48 0.53 0.53 0.48 0.47 0.54 0.36 0.13 0.12 0.18 0.25 0.28 0.27 0.25 0.23 0.24 0.30 0.35 0.41 0.44 0.49 0.57 0.66 0.77 0.91 1.29 1.85 2.47 3.03 3.42 3.50 3.48 3.67
0.52 0.57 0.58 0.58 0.58 0.56 0.60 0.62 0.59 0.51 0.52 0.52 0.30 0.18 0.20 0.26 0.32 0.32 0.30 0.29 0.27 0.30 0.32 0.38 0.45 0.50 0.53 0.59 0.68 0.78 0.88 1.16 1.62 2.29 2.94 3.21 3.23 3.29
0.57 0.62 0.67 0.72 0.73 0.74 0.79 0.77 0.74 0.71 0.63 0.59 0.46 0.33 0.32 0.32 0.39 0.40 0.35 0.33 0.36 0.36 0.35 0.35 0.40 0.47 0.50 0.50 0.50 0.56 0.71 0.99 1.34 1.77 2.34 2.77 2.88 2.90
0.61 0.64 0.68 0.78 0.94 1.09 1.20 1.12 0.97 0.95 0.87 0.81 0.68 0.53 0.45 0.46 0.53 0.50 0.50 0.41 0.42 0.46 0.43 0.36 0.34 0.33 0.37 0.46 0.51 0.54 0.60 0.75 1.01 1.38 1.84 2.33 2.64 2.70
0.57 0.54 0.56 0.63 0.74 0.87 1.04 1.06 1.02 1.13 1.19 1.10 0.95 0.81 0.61 0.54 0.63 0.72 0.75 0.72 0.61 0.50 0.50 0.48 0.42 0.41 0.39 0.39 0.49 0.54 0.63 0.74 0.88 1.10 1.47 1.86 2.26 2.59
0.42 0.42 0.42 0.46 0.53 0.53 0.65 0.71 0.77 0.87 1.04 1.16 1.19 0.97 0.79 0.70 0.83 0.96 0.97 0.95 0.74 0.62 0.71 0.76 0.64 0.57 0.51 0.51 0.58 0.56 0.62 0.72 0.84 0.97 1.14 1.46 1.84 2.25
0.35 0.39 0.39 0.41 0.47 0.59 0.64 0.59 0.53 0.55 0.73 0.93 1.11 1.03 0.93 0.95 1.12 1.31 1.36 1.34 1.09 0.86 0.83 0.99 0.86 0.78 0.70 0.65 0.62 0.56 0.57 0.60 0.68 0.83 1.02 1.23 1.47 1.81
0.34 0.40 0.43 0.39 0.48 0.64 0.70 0.64 0.51 0.46 0.51 0.72 0.94 1.06 1.12 1.24 1.43 1.67 1.75 1.77 1.63 1.30 1.09 1.11 1.02 0.93 0.90 0.86 0.77 0.68 0.60 0.56 0.56 0.66 0.84 1.05 1.29 1.55
0.30 0.37 0.52 0.54 0.54 0.60 0.64 0.66 0.64 0.50 0.41 0.43 0.48 0.59 0.72 0.84 1.12 1.41 1.57 1.70 1.69 1.64 1.35 1.25 1.23 1.17 1.25 1.03 0.83 0.69 0.61 0.59 0.55 0.55 0.64 0.82 1.07 1.27
0.36 0.39 0.45 0.53 0.52 0.55 0.61 0.64 0.69 0.60 0.51 0.50 0.48 0.45 0.50 0.62 0.80 1.09 1.34 1.53 1.65 1.63 1.38 1.42 1.52 1.38 1.34 1.16 0.90 0.75 0.64 0.56 0.49 0.49 0.54 0.66 0.88 1.08
0.41 0.33 0.38 0.48 0.50 0.55 0.55 0.57 0.59 0.60 0.56 0.51 0.45 0.39 0.41 0.52 0.63 0.82 1.09 1.24 1.33 1.37 1.25 1.38 1.61 1.40 1.34 1.15 0.96 0.87 0.76 0.67 0.55 0.47 0.44 0.59 0.75 0.94
0.46 0.52 0.49 0.48 0.46 0.41 0.40 0.46 0.47 0.45 0.52 0.49 0.40 0.32 0.33 0.43 0.52 0.64 0.82 1.02 1.11 1.13 1.15 1.21 1.39 1.38 1.39 1.26 0.96 0.84 0.86 0.85 0.71 0.59 0.52 0.49 0.54 0.68
0.48 0.53 0.53 0.44 0.38 0.33 0.32 0.33 0.34 0.38 0.45 0.44 0.35 0.29 0.30 0.39 0.50 0.61 0.77 0.94 1.11 1.10 1.10 1.16 1.34 1.56 1.56 1.21 1.03 0.92 0.81 0.90 0.83 0.70 0.59 0.53 0.51 0.54
0.67 0.63 0.55 0.46 0.42 0.36 0.30 0.26 0.27 0.33 0.41 0.39 0.38 0.39 0.40 0.43 0.47 0.54 0.71 0.86 1.03 1.01 1.06 1.21 1.36 1.51 1.64 1.56 1.37 1.07 0.86 0.79 0.78 0.76 0.69 0.63 0.60 0.60
0.69 0.64 0.49 0.39 0.35 0.33 0.31 0.29 0.26 0.27 0.30 0.36 0.41 0.42 0.43 0.44 0.47 0.49 0.61 0.77 0.88 0.88 0.96 1.12 1.33 1.54 1.74 1.88 1.65 1.27 1.00 0.87 0.84 0.82 0.75 0.70 0.69 0.69
0.56 0.45 0.35 0.31 0.31 0.29 0.28 0.28 0.26 0.23 0.26 0.34 0.38 0.40 0.41 0.44 0.47 0.50 0.55 0.66 0.75 0.80 0.89 1.03 1.23 1.47 1.56 1.62 1.72 1.46 1.18 1.01 0.93 0.95 0.89 0.75 0.70 0.70
0.39 0.34 0.32 0.29 0.30 0.31 0.29 0.27 0.26 0.26 0.29 0.32 0.34 0.36 0.39 0.45 0.47 0.47 0.50 0.61 0.68 0.74 0.81 0.93 1.12 1.35 1.48 1.38 1.41 1.44 1.40 1.18 1.02 1.01 1.00 0.89 0.81 0.84
0.31 0.29 0.28 0.30 0.30 0.29 0.27 0.27 0.29 0.30 0.29 0.30 0.32 0.33 0.36 0.43 0.44 0.40 0.44 0.52 0.65 0.73 0.76 0.78 0.91 1.13 1.39 1.45 1.37 1.26 1.33 1.43 1.23 1.08 1.05 1.05 1.04 1.03
0.29 0.28 0.27 0.27 0.30 0.30 0.30 0.30 0.31 0.30 0.30 0.32 0.31 0.31 0.33 0.39 0.42 0.41 0.45 0.52 0.58 0.63 0.68 0.71 0.78 1.01 1.35 1.53 1.43 1.25 1.25 1.41 1.54 1.39 1.18 1.07 1.15 1.20
0.32 0.31 0.29 0.29 0.30 0.31 0.33 0.32 0.31 0.29 0.28 0.30 0.31 0.31 0.33 0.38 0.38 0.41 0.43 0.47 0.52 0.57 0.63 0.71 0.77 0.94 1.20 1.38 1.45 1.37 1.27 1.26 1.34 1.42 1.50 1.29 1.02 0.95